[[{"header":{"parameterUnit":"m.s-1","parameterCategory":2,"la1":30.2991,"la2":30.254,"lo1":-89.0895,"lo2":-89.0444,"dy":0.0017,"dx":0.0017,"nx":28,"ny":28,"refTime":"2023-08-24T21:00:00:Z","depth":"0","parameterNumber":2,"parameterNumberName":"U-component_of_CURRENTS"},"data":[0,0,0,0,0,0,0,0,0,0,0,0,0,0,0,0,0,0,0,0,0,0,0,0,0,0,0,0,0,0,0,0,0,0,0,0,0,0,0,0,0,0,0,0,0,0,0,0,0,0,0,0,0,0,0,0,0,0,0.351,0.3512,0,0.3648,0.3649,0.365,0.3663,0.3662,0.3661,0.3661,0.3677,0.3677,0.3678,0,0,0,0,0,0,0,0,0,0,0,0,0,0.3266,0.327,0.351,0.3512,0.3515,0.3648,0.3649,0.365,0.3663,0.3662,0.3661,0.3661,0.3676,0.3677,0.3678,0,0,0,0,0,0,0,0,0,0,0,0,0,0.3375,0.3271,0.3509,0.3545,0.355,0.3648,0.3649,0.365,0.3663,0.3662,0.3661,0.366,0.3676,0.3677,0.3678,0.3702,0,0,0.3683,0.3683,0,0,0,0,0,0,0,0,0.3369,0.3383,0.3537,0.3543,0.3549,0.3647,0.357,0.3665,0.3663,0.3609,0.3661,0.366,0.3662,0.3665,0.3679,0.3703,0.3703,0.3683,0.3683,0.3684,0.3684,0,0,0,0,0,0,0,0.3361,0.3377,0.3554,0.354,0.3548,0.3559,0.3572,0.3588,0.3628,0.3614,0.3618,0.365,0.3663,0.3678,0.368,0.3704,0.3683,0.3684,0.3685,0.3685,0.3751,0.3752,0,0,0,0,0,0,0.3366,0.337,0.355,0.3559,0.3467,0.3564,0.3579,0.3607,0.3631,0.3638,0.365,0.365,0.3676,0.3678,0.368,0.3718,0.3684,0.3685,0.3686,0.375,0.3751,0.3753,0,0,0,0,0,0,0.336,0.3381,0.3544,0.3476,0.3499,0.357,0.3602,0.3611,0.3638,0.3662,0.3664,0.3671,0.3676,0.3678,0.3698,0.3718,0.3686,0.3687,0.3749,0.3751,0.3752,0.3787,0,0,0,0,0,0,0.3353,0.3377,0.3388,0.3476,0.3503,0.3609,0.3604,0.3614,0.3664,0.3664,0.368,0.368,0.3675,0.3696,0.3699,0.3719,0.3688,0.3748,0.375,0.3752,0.3784,0.3789,0.3793,0,0,0,0,0,0.3343,0.3367,0.3387,0.3409,0.3519,0.3612,0.3625,0.3666,0.3665,0.3683,0.3688,0.368,0.3709,0.3698,0.3701,0.3722,0.3747,0.3749,0.3751,0.3782,0.3788,0.3793,0,0,0,0,0,0,0.3277,0.3375,0.3397,0.3452,0.353,0.3618,0.3645,0.3676,0.3697,0.3692,0.3694,0.3695,0.3721,0.3718,0.3706,0.3746,0.3727,0.373,0.3749,0.3755,0.3759,0.3762,0.3689,0,0,0,0,0,0.3269,0.3303,0.3409,0.3452,0.3494,0.3569,0.3609,0.3646,0.369,0.37,0.3706,0.3715,0.3734,0.374,0.3752,0.3776,0.3799,0.3791,0.3796,0.3799,0.3805,0.3831,0.3838,0.376,0.376,0.376,0,0,0.3258,0.3317,0.3337,0.3439,0.3499,0.3567,0.3588,0.3663,0.37,0.3697,0.372,0.3732,0.3744,0.3769,0.378,0.3769,0.3845,0.3802,0.3805,0.3809,0.3834,0.3842,0.3849,0.3761,0.3761,0.3761,0,0,0.3267,0.3309,0.3347,0.3415,0.352,0.3567,0.3594,0.3683,0.3697,0.374,0.3743,0.3765,0.3789,0.3801,0.3812,0.3849,0.3869,0.3857,0.3881,0.3906,0.3913,0.3919,0.4007,0.4021,0.3856,0.3856,0.3856,0,0.325,0.3321,0.3374,0.3442,0.3499,0.3569,0.3634,0.3669,0.3742,0.375,0.3748,0.3794,0.3804,0.3841,0.3859,0.386,0.3899,0.3859,0.3912,0.3918,0.3924,0.4012,0.4027,0.3858,0.3858,0.3858,0.3858,0,0.3298,0.3362,0.3398,0.3493,0.3548,0.3624,0.3694,0.372,0.3742,0.3776,0.381,0.3829,0.3851,0.3869,0.3881,0.3929,0.3957,0.3917,0.3898,0.3934,0.4026,0.404,0.3861,0.386,0.386,0.3859,0,0,0.3255,0.3401,0.3414,0.3468,0.3586,0.3638,0.3685,0.3751,0.3784,0.3814,0.3856,0.3885,0.3892,0.3906,0.3921,0.3957,0.4052,0.3962,0.3963,0.4051,0.4166,0.4124,0.4136,0.4019,0.402,0.4021,0.4233,0,0.3285,0.3397,0.3461,0.3561,0.3631,0.3693,0.3733,0.3785,0.3825,0.3873,0.3887,0.3939,0.3906,0.3943,0.396,0.4037,0.4083,0.4002,0.4117,0.4123,0.4078,0.4147,0.3988,0.4155,0.4247,0.425,0.4251,0,0.3313,0.3389,0.3485,0.3602,0.3635,0.3689,0.3758,0.3813,0.3881,0.3912,0.3942,0.3974,0.4039,0.4007,0.4112,0.4065,0.4117,0.4168,0.4175,0.4127,0.4104,0.4124,0.4178,0.41,0.4273,0.4272,0.427,0,0.3253,0.3401,0.3466,0.3515,0.3651,0.3679,0.374,0.3813,0.3853,0.3954,0.4006,0.4054,0.4112,0.4156,0.4242,0.4191,0.4386,0.4314,0.4329,0.433,0.4211,0.4197,0.4193,0.4384,0.4383,0.4383,0.4382,0,0.3261,0.3322,0.3444,0.3492,0.3556,0.3655,0.372,0.3786,0.3882,0.3931,0.402,0.4071,0.4149,0.4253,0.43,0.438,0.4419,0.4363,0.4373,0.4224,0.4209,0.4146,0.4107,0.4391,0.4389,0.4387,0.4386,0,0.3203,0.329,0.3376,0.3503,0.3539,0.3582,0.3704,0.3742,0.3863,0.394,0.3979,0.4114,0.4242,0.4352,0.4484,0.4461,0.4442,0.4568,0.4427,0.4413,0.4273,0.4242,0.4127,0.4008,0.4596,0.4596,0.4596,0,0.3191,0.3229,0.3351,0.3379,0.3442,0.3522,0.3563,0.3701,0.3747,0.3937,0.3959,0.4144,0.4193,0.4419,0.4479,0.4596,0.4465,0.4507,0.4335,0.4269,0.4244,0.4081,0.3976,0.4235,0.4232,0.423,0.4228,0,0.3159,0.3191,0.3246,0.3306,0.3355,0.3408,0.349,0.3521,0.367,0.3742,0.3842,0.3918,0.4155,0.4189,0.4386,0.4421,0.4289,0.4457,0.4402,0.3977,0.3785,0.3674,0.4154,0.4207,0.4209,0.4211,0.4212,0.4213,0.3104,0.3116,0.3169,0.3205,0.3252,0.3264,0.3245,0.3327,0.337,0.343,0.3623,0.368,0.3905,0.4125,0.4162,0.4177,0.4132,0.4066,0.4055,0.3915,0.3699,0.4164,0.4196,0.4198,0.42,0.4202,0.4203,0,0.3012,0.3025,0.3062,0.3085,0.3056,0.3128,0.3152,0.3094,0.3059,0.3195,0.3248,0.3443,0.3537,0.3733,0.3901,0.3819,0.3626,0.3742,0.3472,0.3401,0.3846,0.3727,0.3638,0.3638,0.3638,0.3638,0.3638,0.3638,0.2962,0.2938,0.2949,0.2869,0.2865,0.2776,0.2737,0.2687,0.2735,0.275,0.2837,0.2988,0.3376,0.3646,0.3668,0.3583,0.3335,0.3195,0.3197,0.3529,0.3557,0.3584,0.3461,0.3318,0.3317,0.259,0.2584,0.2581]},{"header":{"parameterUnit":"m.s-1","parameterCategory":2,"la1":30.2991,"la2":30.254,"lo1":-89.0895,"lo2":-89.0444,"dy":0.0017,"dx":0.0017,"nx":28,"ny":28,"refTime":"2023-08-24T21:00:00:Z","depth":"0","parameterNumber":3,"parameterNumberName":"V-component_of_CURRENTS"},"data":[0,0,0,0,0,0,0,0,0,0,0,0,0,0,0,0,0,0,0,0,0,0,0,0,0,0,0,0,0,0,0,0,0,0,0,0,0,0,0,0,0,0,0,0,0,0,0,0,0,0,0,0,0,0,0,0,0,0,-0.0438,-0.0441,0,-0.0655,-0.0657,-0.0659,-0.0763,-0.0763,-0.0763,-0.0763,-0.0921,-0.0925,-0.0929,0,0,0,0,0,0,0,0,0,0,0,0,0,-0.0257,-0.0259,-0.0438,-0.0441,-0.0444,-0.0654,-0.0657,-0.066,-0.0763,-0.0763,-0.0763,-0.0763,-0.0919,-0.0924,-0.0929,0,0,0,0,0,0,0,0,0,0,0,0,0,-0.0388,-0.0259,-0.0438,-0.0522,-0.0532,-0.0654,-0.0657,-0.0661,-0.0763,-0.0763,-0.0763,-0.0763,-0.0918,-0.0924,-0.093,-0.0966,0,0,-0.0949,-0.0952,0,0,0,0,0,0,0,0,-0.0381,-0.0395,-0.0507,-0.0516,-0.0527,-0.0683,-0.0652,-0.0761,-0.0763,-0.0673,-0.0763,-0.0763,-0.0837,-0.085,-0.0889,-0.0974,-0.0981,-0.095,-0.0953,-0.0956,-0.0958,0,0,0,0,0,0,0,-0.0371,-0.0387,-0.0522,-0.051,-0.0522,-0.0598,-0.0615,-0.0673,-0.0749,-0.0681,-0.0689,-0.0716,-0.0842,-0.0883,-0.0893,-0.0983,-0.0949,-0.0955,-0.0959,-0.0961,-0.1099,-0.1099,0,0,0,0,0,0,-0.0341,-0.0377,-0.0515,-0.0529,-0.0455,-0.06,-0.062,-0.0632,-0.075,-0.077,-0.0716,-0.072,-0.0872,-0.0886,-0.0899,-0.092,-0.0956,-0.0962,-0.0965,-0.1099,-0.1099,-0.1099,0,0,0,0,0,0,-0.0336,-0.035,-0.0507,-0.0461,-0.0486,-0.0603,-0.0616,-0.0636,-0.0672,-0.0778,-0.0796,-0.073,-0.0873,-0.089,-0.0936,-0.0928,-0.0965,-0.097,-0.1099,-0.1099,-0.1099,-0.098,0,0,0,0,0,0,-0.0329,-0.0347,-0.0337,-0.0458,-0.0487,-0.056,-0.0617,-0.064,-0.0689,-0.0697,-0.0796,-0.0811,-0.0874,-0.0926,-0.0942,-0.0937,-0.0975,-0.1099,-0.1099,-0.1099,-0.0984,-0.0976,-0.0969,0,0,0,0,0,-0.0322,-0.0307,-0.0335,-0.0352,-0.0472,-0.056,-0.0581,-0.0665,-0.0689,-0.0697,-0.0761,-0.0808,-0.0937,-0.0931,-0.095,-0.0946,-0.1099,-0.1099,-0.1099,-0.0988,-0.0978,-0.097,0,0,0,0,0,0,-0.0234,-0.032,-0.0353,-0.0367,-0.0448,-0.0577,-0.0594,-0.0652,-0.0714,-0.0714,-0.0806,-0.0826,-0.0865,-0.0922,-0.0913,-0.0987,-0.1027,-0.103,-0.0936,-0.0928,-0.092,-0.0878,-0.098,0,0,0,0,0,-0.0206,-0.021,-0.0318,-0.033,-0.0361,-0.0472,-0.0516,-0.0575,-0.0654,-0.0682,-0.0752,-0.0823,-0.0882,-0.0914,-0.0976,-0.1013,-0.1018,-0.1025,-0.1018,-0.1011,-0.099,-0.0998,-0.0988,-0.1098,-0.1098,-0.1098,0,0,-0.0183,-0.0226,-0.0233,-0.031,-0.0376,-0.0419,-0.0497,-0.0554,-0.0586,-0.0687,-0.073,-0.0796,-0.0886,-0.0929,-0.0952,-0.0973,-0.0975,-0.1011,-0.1004,-0.0987,-0.0997,-0.0986,-0.0976,-0.1098,-0.1098,-0.1098,0,0,-0.0134,-0.0166,-0.0155,-0.0213,-0.0298,-0.0368,-0.0376,-0.0491,-0.053,-0.0588,-0.0663,-0.0717,-0.0816,-0.0876,-0.0919,-0.0907,-0.0932,-0.0932,-0.0862,-0.087,-0.086,-0.0851,-0.0799,-0.0787,-0.093,-0.093,-0.093,0,-0.0099,-0.0106,-0.017,-0.0184,-0.0224,-0.0334,-0.0349,-0.0411,-0.0526,-0.054,-0.058,-0.0707,-0.079,-0.0833,-0.084,-0.0888,-0.0871,-0.0885,-0.0855,-0.0847,-0.0841,-0.079,-0.0778,-0.0925,-0.0925,-0.0926,-0.0926,0,-0.0058,-0.0068,-0.0068,-0.0114,-0.0158,-0.0193,-0.0286,-0.0318,-0.0377,-0.0442,-0.0488,-0.0598,-0.0669,-0.0712,-0.0779,-0.0779,-0.0772,-0.0838,-0.0866,-0.0821,-0.0772,-0.0761,-0.0916,-0.0918,-0.092,-0.0921,0,0,0.002,-0.0026,-0.0028,-0.0035,-0.0124,-0.0158,-0.0185,-0.0242,-0.024,-0.034,-0.0332,-0.0464,-0.0514,-0.0566,-0.0654,-0.0675,-0.0621,-0.0727,-0.073,-0.065,-0.0575,-0.0559,-0.0546,-0.0673,-0.0672,-0.0671,-0.0542,0,0.0066,0.0077,0.0033,0.0027,0.0017,-0.0066,-0.0079,-0.0137,-0.0189,-0.0204,-0.0302,-0.0336,-0.0462,-0.048,-0.0525,-0.0606,-0.0595,-0.0646,-0.0652,-0.0651,-0.0624,-0.0536,-0.056,-0.0448,-0.0532,-0.0531,-0.0529,0,0.0113,0.0115,0.0135,0.0109,0.01,0.009,0.0071,0.0043,-0.0002,-0.0032,-0.008,-0.0157,-0.0213,-0.0318,-0.0399,-0.042,-0.0475,-0.0531,-0.0529,-0.0548,-0.0616,-0.0519,-0.0426,-0.0658,-0.0514,-0.0515,-0.0516,0,0.0198,0.018,0.0212,0.0194,0.0152,0.0169,0.0152,0.0111,0.0132,0.01,0.0139,0.0023,0.0023,-0.01,-0.0239,-0.0307,-0.0285,-0.0403,-0.042,-0.0418,-0.0458,-0.0462,-0.0574,-0.0414,-0.0414,-0.0415,-0.0415,0,0.0256,0.0273,0.0263,0.0275,0.0329,0.0266,0.0331,0.0299,0.0313,0.0391,0.025,0.0317,0.0081,0.0045,-0.0128,-0.021,-0.0195,-0.0363,-0.0381,-0.0415,-0.0416,-0.0639,-0.076,-0.041,-0.0411,-0.0412,-0.0413,0,0.0333,0.0322,0.0362,0.0362,0.0374,0.0418,0.0467,0.0523,0.0515,0.063,0.0645,0.0582,0.0534,0.0327,0.0174,-0.0014,-0.0247,-0.0163,-0.0152,-0.0173,-0.0467,-0.0578,-0.065,-0.0747,-0.0177,-0.0176,-0.0175,0,0.037,0.0402,0.0451,0.0503,0.0515,0.0576,0.0638,0.0635,0.0718,0.0816,0.0908,0.09,0.0915,0.0703,0.0371,0.0126,-0.0116,-0.0059,-0.0233,-0.0441,-0.0581,-0.0678,-0.0763,-0.0216,-0.0215,-0.0215,-0.0214,0,0.0445,0.0476,0.0521,0.0638,0.0721,0.081,0.0905,0.1003,0.1051,0.1157,0.131,0.1335,0.114,0.0872,0.0522,0.0303,-0.0239,-0.0056,-0.0297,-0.0619,-0.0706,-0.0821,-0.0305,-0.021,-0.021,-0.0211,-0.0211,-0.0211,0.0517,0.0582,0.0667,0.0776,0.0887,0.1041,0.1138,0.1263,0.1428,0.1588,0.1603,0.166,0.1256,0.0759,0.0454,-0.0159,-0.0168,-0.0407,-0.0512,-0.058,-0.0727,-0.016,-0.0092,-0.0091,-0.0091,-0.0091,-0.0091,0,0.0604,0.0683,0.0795,0.0946,0.1096,0.1122,0.1315,0.1424,0.1639,0.1781,0.1883,0.171,0.1198,0.0659,-0.0121,-0.0565,-0.0771,-0.0818,-0.1013,-0.1073,-0.0589,-0.0654,-0.0674,-0.0674,-0.0674,-0.0673,-0.0673,-0.0673,0.0659,0.0787,0.0848,0.11,0.1212,0.1404,0.1517,0.1681,0.1806,0.1976,0.2001,0.199,0.1595,0.0174,-0.0836,-0.108,-0.1405,-0.1444,-0.1591,-0.1344,-0.1317,-0.1292,-0.1385,-0.1558,-0.1559,-0.2072,-0.2077,-0.2081]}],[{"header":{"parameterUnit":"m.s-1","parameterCategory":2,"la1":30.2991,"la2":30.254,"lo1":-89.0895,"lo2":-89.0444,"dy":0.0017,"dx":0.0017,"nx":28,"ny":28,"refTime":"2023-08-24T21:00:00:Z","depth":"2","parameterNumber":2,"parameterNumberName":"U-component_of_CURRENTS"},"data":[0,0,0,0,0,0,0,0,0,0,0,0,0,0,0,0,0,0,0,0,0,0,0,0,0,0,0,0,0,0,0,0,0,0,0,0,0,0,0,0,0,0,0,0,0,0,0,0,0,0,0,0,0,0,0,0,0,0,0.2542,0.2542,0,0.2755,0.2759,0.2763,0.2971,0.2972,0.2972,0.2973,0.2943,0.2941,0.294,0,0,0,0,0,0,0,0,0,0,0,0,0,0.241,0.2413,0.2542,0.2542,0.2543,0.2754,0.2759,0.2765,0.2971,0.2972,0.2972,0.2973,0.2943,0.2942,0.294,0,0,0,0,0,0,0,0,0,0,0,0,0,0.2552,0.2414,0.2542,0.2654,0.2664,0.2753,0.2759,0.2766,0.2971,0.2972,0.2972,0.2973,0.2944,0.2942,0.294,0.2914,0,0,0.2934,0.2933,0,0,0,0,0,0,0,0,0.2544,0.256,0.2637,0.2646,0.2657,0.2816,0.2701,0.2795,0.2971,0.288,0.2973,0.2973,0.2861,0.2866,0.2943,0.2913,0.2911,0.2934,0.2933,0.2932,0.2932,0,0,0,0,0,0,0,0.2534,0.2552,0.2651,0.2636,0.2649,0.2723,0.2747,0.2723,0.2878,0.2888,0.2898,0.2882,0.2869,0.2945,0.2942,0.2911,0.2934,0.2932,0.2931,0.2931,0.2974,0.2976,0,0,0,0,0,0,0.2453,0.2542,0.2644,0.2655,0.2574,0.2723,0.275,0.2784,0.2884,0.2895,0.2881,0.2891,0.2947,0.2944,0.2941,0.2992,0.2932,0.293,0.2929,0.2972,0.2974,0.2977,0,0,0,0,0,0,0.2451,0.2462,0.2635,0.2581,0.2605,0.2721,0.276,0.2787,0.2887,0.2877,0.2889,0.2951,0.2948,0.2944,0.2961,0.2988,0.2929,0.2928,0.2969,0.2973,0.2976,0.3041,0,0,0,0,0,0,0.2447,0.2462,0.2476,0.2577,0.2604,0.272,0.2757,0.279,0.2862,0.2879,0.2938,0.2937,0.2948,0.2965,0.296,0.2984,0.2926,0.2966,0.2971,0.2975,0.3036,0.3046,0.3055,0,0,0,0,0,0.2443,0.2468,0.2478,0.2488,0.2617,0.2719,0.2747,0.2845,0.2864,0.2936,0.2965,0.2937,0.2988,0.2965,0.2958,0.2983,0.2964,0.2969,0.2974,0.3031,0.3044,0.3055,0,0,0,0,0,0,0.2434,0.2491,0.2505,0.255,0.2628,0.2746,0.2814,0.2849,0.2942,0.2955,0.2953,0.2956,0.2989,0.2974,0.2947,0.3014,0.2975,0.2979,0.3021,0.3032,0.3041,0.3032,0.2925,0,0,0,0,0,0.242,0.2451,0.2524,0.2559,0.2613,0.2711,0.2763,0.2823,0.2892,0.2943,0.2969,0.2991,0.3005,0.3007,0.3029,0.304,0.3031,0.3058,0.3068,0.3076,0.3068,0.3112,0.3124,0.2994,0.2994,0.2994,0,0,0.2419,0.2447,0.2467,0.2555,0.2647,0.2706,0.2759,0.2857,0.2885,0.2906,0.2984,0.3021,0.3018,0.3067,0.3077,0.3053,0.3109,0.3082,0.3089,0.3076,0.3118,0.3131,0.3142,0.2997,0.2997,0.2996,0,0,0.2418,0.2483,0.2511,0.2568,0.2655,0.2728,0.2746,0.2876,0.2941,0.2993,0.3022,0.3078,0.3099,0.3129,0.3129,0.3189,0.3162,0.32,0.3229,0.3273,0.3283,0.3292,0.3292,0.33,0.3199,0.3199,0.3199,0,0.2393,0.2455,0.2538,0.2571,0.2619,0.2726,0.2782,0.2848,0.295,0.298,0.302,0.3111,0.3127,0.315,0.321,0.3207,0.3219,0.3182,0.3284,0.3293,0.3301,0.3298,0.3306,0.3203,0.3203,0.3202,0.3202,0,0.2421,0.2459,0.2503,0.2572,0.2642,0.2725,0.28,0.2888,0.2964,0.2994,0.3077,0.3148,0.3193,0.3228,0.3241,0.3308,0.3293,0.3294,0.3249,0.3317,0.331,0.3318,0.3208,0.3207,0.3206,0.3205,0,0,0.2391,0.2495,0.2506,0.2555,0.266,0.2739,0.2797,0.2895,0.2937,0.3029,0.3092,0.3167,0.3216,0.3224,0.3266,0.3332,0.3422,0.3355,0.3355,0.3342,0.3501,0.3427,0.3428,0.3455,0.3457,0.3459,0.3469,0,0.2399,0.2447,0.2509,0.2594,0.2663,0.2771,0.2796,0.2867,0.2974,0.3057,0.3115,0.3191,0.3196,0.3277,0.3324,0.3404,0.3448,0.3417,0.3445,0.3445,0.3363,0.3436,0.3183,0.3167,0.3476,0.3477,0.3478,0,0.2413,0.2452,0.2515,0.2622,0.2669,0.2707,0.2865,0.2914,0.2994,0.3069,0.3142,0.3198,0.3274,0.3322,0.3402,0.3388,0.3447,0.3508,0.3509,0.3419,0.3386,0.3151,0.3168,0.3491,0.349,0.3489,0.3488,0,0.2382,0.2476,0.2537,0.2569,0.2674,0.2733,0.2815,0.2901,0.2952,0.3108,0.3185,0.3229,0.3322,0.3372,0.3474,0.3458,0.3595,0.3565,0.3532,0.3525,0.3299,0.3269,0.3644,0.3644,0.3644,0.3644,0.3644,0,0.2378,0.2435,0.2523,0.2554,0.262,0.2714,0.2806,0.2896,0.2989,0.3045,0.3181,0.3249,0.3365,0.3446,0.3487,0.3519,0.3575,0.3541,0.3535,0.3315,0.3288,0.3559,0.3549,0.3644,0.3644,0.3644,0.3644,0,0.2335,0.2391,0.2459,0.2563,0.2598,0.2651,0.2778,0.2836,0.2957,0.307,0.3125,0.3267,0.3377,0.347,0.3595,0.3547,0.3596,0.361,0.3328,0.3288,0.3478,0.3471,0.3511,0.3508,0.3507,0.3505,0.3504,0,0.2317,0.2333,0.2432,0.2468,0.2524,0.2617,0.2655,0.2785,0.2869,0.3057,0.3099,0.3265,0.3327,0.3442,0.3449,0.3471,0.3593,0.3266,0.3183,0.348,0.3471,0.3467,0.3463,0.29,0.2894,0.2889,0.2885,0,0.2277,0.2299,0.2347,0.2391,0.2455,0.253,0.2633,0.265,0.2823,0.2905,0.2995,0.3057,0.3204,0.3114,0.3213,0.3185,0.3224,0.3162,0.3567,0.2984,0.2908,0.2898,0.2913,0.284,0.2844,0.2847,0.285,0.2852,0.2227,0.223,0.2271,0.2311,0.2379,0.2419,0.2413,0.2526,0.2567,0.2654,0.2787,0.2818,0.2888,0.286,0.2801,0.2783,0.298,0.2867,0.2881,0.29,0.2839,0.2766,0.2656,0.2659,0.2662,0.2664,0.2667,0,0.2148,0.2167,0.2201,0.2224,0.2232,0.2319,0.237,0.2331,0.2316,0.2455,0.2496,0.2339,0.2315,0.2411,0.2301,0.2307,0.226,0.2234,0.216,0.2207,0.2249,0.2152,0.1788,0.1785,0.1782,0.1779,0,0,0.2112,0.2098,0.21,0.2061,0.2083,0.204,0.2022,0.1992,0.2047,0.2012,0.2031,0.2202,0.2329,0.2021,0.1996,0.1879,0.2019,0.1806,0.2517,0.2476,0.2514,0.2628,0.2535,0,0,0,0,0]},{"header":{"parameterUnit":"m.s-1","parameterCategory":2,"la1":30.2991,"la2":30.254,"lo1":-89.0895,"lo2":-89.0444,"dy":0.0017,"dx":0.0017,"nx":28,"ny":28,"refTime":"2023-08-24T21:00:00:Z","depth":"2","parameterNumber":3,"parameterNumberName":"V-component_of_CURRENTS"},"data":[0,0,0,0,0,0,0,0,0,0,0,0,0,0,0,0,0,0,0,0,0,0,0,0,0,0,0,0,0,0,0,0,0,0,0,0,0,0,0,0,0,0,0,0,0,0,0,0,0,0,0,0,0,0,0,0,0,0,0.0148,0.0148,0,0.001,0.0007,0.0003,-0.0204,-0.0206,-0.0207,-0.0209,-0.0353,-0.0356,-0.0358,0,0,0,0,0,0,0,0,0,0,0,0,0,0.011,0.011,0.0148,0.0148,0.0149,0.0011,0.0007,0.0002,-0.0204,-0.0206,-0.0208,-0.021,-0.0352,-0.0355,-0.0358,0,0,0,0,0,0,0,0,0,0,0,0,0,0.0042,0.011,0.0148,0.0047,0.0038,0.0012,0.0006,0.0001,-0.0204,-0.0206,-0.0208,-0.021,-0.0351,-0.0355,-0.0359,-0.0337,0,0,-0.037,-0.0371,0,0,0,0,0,0,0,0,0.0047,0.0041,0.0061,0.0054,0.0044,-0.0061,-0.0059,-0.0104,-0.0203,-0.0137,-0.0209,-0.0211,-0.0239,-0.0252,-0.0307,-0.0344,-0.035,-0.037,-0.0372,-0.0374,-0.0375,0,0,0,0,0,0,0,0.0051,0.0045,0.0069,0.0062,0.0052,-0.0031,-0.0046,-0.0071,-0.0193,-0.0143,-0.0153,-0.0129,-0.0247,-0.0303,-0.0311,-0.0352,-0.037,-0.0373,-0.0376,-0.0377,-0.0473,-0.0474,0,0,0,0,0,0,0.0126,0.0051,0.0074,0.0067,0.0067,-0.0027,-0.0044,-0.0045,-0.0193,-0.021,-0.0127,-0.0138,-0.0296,-0.0307,-0.0317,-0.035,-0.0374,-0.0377,-0.038,-0.0473,-0.0473,-0.0474,0,0,0,0,0,0,0.0125,0.0128,0.008,0.0076,0.0067,-0.002,-0.0022,-0.0046,-0.0114,-0.0175,-0.0199,-0.0168,-0.0298,-0.0312,-0.0354,-0.0355,-0.0379,-0.0382,-0.0473,-0.0473,-0.0474,-0.0382,0,0,0,0,0,0,0.0124,0.0128,0.0132,0.0081,0.0071,0.0067,-0.0018,-0.0046,-0.0083,-0.01,-0.0217,-0.0234,-0.0301,-0.0348,-0.0357,-0.036,-0.0385,-0.0472,-0.0473,-0.0473,-0.0385,-0.038,-0.0375,0,0,0,0,0,0.0122,0.0142,0.0132,0.0136,0.0085,0.0071,0.0053,-0.0032,-0.0081,-0.0107,-0.0189,-0.0231,-0.036,-0.035,-0.0362,-0.0366,-0.0472,-0.0473,-0.0473,-0.0387,-0.0381,-0.0375,0,0,0,0,0,0,0.0121,0.0124,0.0111,0.0128,0.0112,0.0044,0.0025,-0.0021,-0.0111,-0.0133,-0.0222,-0.0242,-0.0286,-0.0331,-0.0318,-0.0399,-0.0427,-0.043,-0.0358,-0.0352,-0.0348,-0.0311,-0.0388,0,0,0,0,0,0.0139,0.0148,0.0143,0.0157,0.0155,0.0091,0.0071,0.0025,-0.0036,-0.0083,-0.0165,-0.0244,-0.0295,-0.0326,-0.0385,-0.0408,-0.043,-0.0425,-0.0419,-0.0415,-0.0395,-0.0435,-0.0431,-0.0476,-0.0476,-0.0476,0,0,0.0146,0.0154,0.0157,0.0159,0.0127,0.0136,0.0063,0.0048,0.004,-0.0073,-0.0144,-0.0223,-0.0297,-0.0347,-0.037,-0.0384,-0.0412,-0.0416,-0.0411,-0.0394,-0.0435,-0.0431,-0.0427,-0.0477,-0.0477,-0.0477,0,0,0.0183,0.0171,0.0193,0.0198,0.02,0.0163,0.0172,0.0106,0.005,0.0006,-0.0085,-0.0155,-0.0248,-0.0308,-0.0342,-0.0335,-0.0383,-0.0368,-0.0313,-0.0352,-0.0347,-0.0344,-0.035,-0.0348,-0.0367,-0.0367,-0.0367,0,0.0199,0.0225,0.0197,0.0234,0.0245,0.0188,0.0213,0.017,0.009,0.0063,-0.0003,-0.0156,-0.0226,-0.0262,-0.0285,-0.032,-0.0344,-0.0324,-0.0342,-0.0339,-0.0337,-0.0344,-0.0343,-0.0363,-0.0363,-0.0364,-0.0364,0,0.0254,0.0283,0.0299,0.0321,0.0318,0.0335,0.031,0.027,0.0196,0.0149,0.0072,-0.0046,-0.0131,-0.0178,-0.0234,-0.0258,-0.0279,-0.0326,-0.0346,-0.0326,-0.0336,-0.0336,-0.0357,-0.0358,-0.0359,-0.036,0,0,0.0281,0.0328,0.0337,0.0364,0.0368,0.0372,0.0371,0.0351,0.0341,0.0238,0.0209,0.0085,0.001,-0.0034,-0.0122,-0.0177,-0.0193,-0.0246,-0.025,-0.0231,-0.0258,-0.03,-0.0304,-0.0251,-0.0251,-0.0251,-0.0263,0,0.0333,0.0416,0.0414,0.0473,0.0508,0.0472,0.0487,0.0463,0.0384,0.0339,0.0239,0.0173,0.0077,0.0018,-0.004,-0.016,-0.0194,-0.0184,-0.0298,-0.03,-0.0324,-0.0306,-0.0279,-0.0291,-0.0264,-0.0264,-0.0264,0,0.0389,0.0439,0.0512,0.0562,0.0572,0.0597,0.0578,0.058,0.0532,0.0474,0.0396,0.0305,0.0232,0.0127,-0.0013,-0.0006,-0.0111,-0.0209,-0.0212,-0.028,-0.0343,-0.0314,-0.0293,-0.0265,-0.0265,-0.0265,-0.0265,0,0.0421,0.0501,0.0555,0.0579,0.063,0.0644,0.0652,0.0618,0.0629,0.0554,0.0539,0.0429,0.0374,0.0232,0.0036,0.001,-0.0128,-0.0183,-0.0304,-0.0307,-0.0318,-0.0323,-0.0267,-0.0267,-0.0267,-0.0267,-0.0267,0,0.048,0.053,0.0583,0.0625,0.07,0.0702,0.0744,0.0727,0.0722,0.0755,0.0622,0.0603,0.0389,0.0275,0.0096,-0.0093,-0.0067,-0.0276,-0.0315,-0.0286,-0.0288,-0.0302,-0.0306,-0.0268,-0.0268,-0.0268,-0.0267,0,0.0518,0.0553,0.0632,0.0697,0.0726,0.0774,0.0845,0.0873,0.0854,0.0885,0.0879,0.0758,0.0603,0.039,0.0151,-0.0004,-0.0197,-0.0272,-0.0209,-0.0242,-0.0355,-0.0354,-0.0382,-0.0384,-0.0385,-0.0386,-0.0387,0,0.0546,0.0594,0.0688,0.0744,0.0782,0.0857,0.0923,0.0941,0.0977,0.0975,0.1009,0.0875,0.0772,0.043,0.0122,-0.0158,-0.02,-0.031,-0.0366,-0.0332,-0.0368,-0.0365,-0.0362,-0.0331,-0.0332,-0.0332,-0.0333,0,0.0605,0.0632,0.0696,0.0817,0.0896,0.0992,0.1081,0.114,0.1167,0.1188,0.1177,0.109,0.077,0.0457,0.0075,-0.0115,-0.0267,-0.0328,-0.0304,-0.032,-0.029,-0.0323,-0.0321,-0.0336,-0.0335,-0.0335,-0.0335,-0.0335,0.0641,0.0696,0.0779,0.0891,0.0992,0.1111,0.118,0.1262,0.1339,0.1368,0.1296,0.1175,0.0846,0.0331,0.0011,-0.0305,-0.0305,-0.0412,-0.0409,-0.0405,-0.041,-0.0387,-0.0448,-0.0449,-0.0449,-0.0449,-0.0449,0,0.0686,0.0751,0.0852,0.0982,0.1088,0.114,0.1279,0.1331,0.1408,0.1438,0.1399,0.1084,0.0734,0.0387,-0.0099,-0.0404,-0.0414,-0.0473,-0.042,-0.0415,-0.0411,-0.0415,-0.0455,-0.0456,-0.0456,-0.0457,0,0,0.0713,0.0808,0.086,0.1037,0.1129,0.1262,0.1334,0.1409,0.1459,0.1457,0.1401,0.1263,0.0834,0.049,0.0086,-0.018,-0.0221,-0.0226,-0.0191,-0.0075,-0.0067,-0.035,-0.0349,0,0,0,0,0]}],[{"header":{"parameterUnit":"m.s-1","parameterCategory":2,"la1":30.2991,"la2":30.254,"lo1":-89.0895,"lo2":-89.0444,"dy":0.0017,"dx":0.0017,"nx":28,"ny":28,"refTime":"2023-08-24T21:00:00:Z","depth":"4","parameterNumber":2,"parameterNumberName":"U-component_of_CURRENTS"},"data":[0,0,0,0,0,0,0,0,0,0,0,0,0,0,0,0,0,0,0,0,0,0,0,0,0,0,0,0,0,0,0,0,0,0,0,0,0,0,0,0,0,0,0,0,0,0,0,0,0,0,0,0,0,0,0,0,0,0,0.1144,0.1144,0,0.102,0.1018,0.1016,0.0976,0.0977,0.0978,0.0979,0.1096,0.1098,0.11,0,0,0,0,0,0,0,0,0,0,0,0,0,0.1186,0.1186,0.1145,0.1144,0.1143,0.102,0.1018,0.1015,0.0976,0.0977,0.0979,0.098,0.1095,0.1098,0.11,0,0,0,0,0,0,0,0,0,0,0,0,0,0.1119,0.1186,0.1145,0.1113,0.111,0.1021,0.1018,0.1015,0.0975,0.0977,0.0979,0.0981,0.1095,0.1097,0.11,0.1082,0,0,0.1109,0.1111,0,0,0,0,0,0,0,0,0.1123,0.1116,0.1119,0.1115,0.1111,0.1022,0.1075,0.1052,0.0975,0.1019,0.0979,0.0982,0.1097,0.11,0.1058,0.1087,0.1092,0.111,0.1111,0.1113,0.1114,0,0,0,0,0,0,0,0.1128,0.1121,0.1088,0.1118,0.1113,0.105,0.1044,0.1068,0.1048,0.1015,0.1014,0.1011,0.1096,0.1055,0.1062,0.1094,0.111,0.1112,0.1114,0.1115,0.1287,0.129,0,0,0,0,0,0,0.1164,0.1126,0.1092,0.1085,0.113,0.105,0.1041,0.1043,0.1042,0.1044,0.1009,0.1009,0.1049,0.1058,0.1066,0.118,0.1113,0.1115,0.1117,0.1284,0.1287,0.1291,0,0,0,0,0,0,0.1165,0.1162,0.1097,0.1108,0.1096,0.1049,0.1049,0.1039,0.1005,0.1037,0.1042,0.0987,0.1051,0.1062,0.1146,0.1181,0.1117,0.1119,0.1281,0.1285,0.1289,0.1324,0,0,0,0,0,0,0.1167,0.1163,0.1183,0.1111,0.1097,0.1054,0.1048,0.1036,0.1004,0.1002,0.102,0.1031,0.1053,0.1142,0.1149,0.1184,0.1122,0.1277,0.1283,0.1288,0.1319,0.1329,0.1337,0,0,0,0,0,0.1169,0.1172,0.1184,0.1181,0.1124,0.1054,0.104,0.1007,0.1001,0.0981,0.1039,0.1031,0.118,0.1146,0.1154,0.119,0.1275,0.1281,0.1287,0.1315,0.1327,0.1337,0,0,0,0,0,0,0.1184,0.1168,0.1179,0.1176,0.1133,0.1051,0.104,0.1003,0.1014,0.106,0.1062,0.1079,0.1137,0.1178,0.1139,0.126,0.1227,0.1235,0.1246,0.1257,0.1265,0.1287,0.1124,0,0,0,0,0,0.1205,0.1222,0.1174,0.1178,0.1163,0.1101,0.1073,0.1064,0.1059,0.106,0.1083,0.1139,0.1162,0.1224,0.124,0.133,0.1349,0.1363,0.1372,0.1379,0.1406,0.1416,0.1427,0.1311,0.1311,0.1311,0,0,0.1215,0.1211,0.1221,0.1186,0.1157,0.1135,0.1087,0.1073,0.1087,0.1084,0.114,0.1142,0.1179,0.1256,0.1294,0.1312,0.1437,0.1387,0.1392,0.1416,0.1423,0.1434,0.1443,0.1315,0.1315,0.1314,0,0,0.1229,0.1239,0.1254,0.1226,0.1213,0.118,0.1176,0.1132,0.1149,0.1208,0.1191,0.1241,0.1307,0.1336,0.1358,0.1437,0.1436,0.1441,0.1558,0.1566,0.1575,0.1582,0.1673,0.1688,0.1501,0.1501,0.1501,0,0.1245,0.1251,0.1239,0.1236,0.1225,0.12,0.1195,0.1199,0.1202,0.125,0.1263,0.1331,0.1348,0.1416,0.1454,0.1453,0.1483,0.1503,0.1574,0.1581,0.1588,0.1679,0.1695,0.1503,0.1503,0.1503,0.1503,0,0.1259,0.1264,0.1262,0.127,0.1259,0.125,0.1263,0.1295,0.1333,0.1358,0.144,0.1467,0.1528,0.1522,0.1525,0.1584,0.1598,0.1529,0.1534,0.1601,0.1694,0.1711,0.1507,0.1506,0.1505,0.1505,0,0,0.1264,0.1273,0.1271,0.1276,0.1282,0.1263,0.1335,0.1371,0.1434,0.1503,0.1579,0.1628,0.1657,0.1684,0.167,0.1705,0.1784,0.167,0.1669,0.1744,0.1871,0.1708,0.1711,0.1711,0.1713,0.1714,0.1934,0,0.1265,0.1276,0.1283,0.1286,0.1281,0.1306,0.136,0.1431,0.1511,0.1597,0.1673,0.1733,0.1717,0.1752,0.1787,0.1756,0.1822,0.1737,0.1813,0.1818,0.1645,0.172,0.172,0.1946,0.1949,0.1952,0.1954,0,0.1257,0.1268,0.1288,0.1305,0.1307,0.1327,0.142,0.1473,0.1616,0.1695,0.181,0.1851,0.1954,0.1887,0.1977,0.1924,0.1926,0.1908,0.1914,0.1757,0.1681,0.1856,0.1983,0.1981,0.1979,0.1977,0.1975,0,0.1249,0.1252,0.1278,0.1279,0.1315,0.136,0.1394,0.1526,0.1607,0.1767,0.1853,0.1973,0.2042,0.2063,0.2084,0.204,0.2147,0.2076,0.1952,0.1945,0.201,0.1998,0.2123,0.2123,0.2122,0.2122,0.2121,0,0.1217,0.1218,0.1281,0.1284,0.1334,0.1376,0.1477,0.1537,0.168,0.1784,0.1908,0.1991,0.2074,0.215,0.2148,0.2127,0.2223,0.1999,0.1975,0.2031,0.2019,0.2025,0.2011,0.213,0.2128,0.2126,0.2125,0,0.1175,0.1213,0.1233,0.1298,0.1329,0.1373,0.1489,0.156,0.1702,0.1837,0.1894,0.2051,0.2138,0.2213,0.2259,0.2194,0.2183,0.2138,0.2284,0.226,0.1985,0.1971,0.2065,0.2061,0.2057,0.2054,0.2052,0,0.1146,0.1167,0.1247,0.1274,0.1298,0.1385,0.1446,0.157,0.1644,0.1849,0.189,0.2042,0.2128,0.2139,0.2177,0.2214,0.2138,0.2172,0.2001,0.2004,0.1973,0.1964,0.1955,0.2046,0.2045,0.2044,0.2043,0,0.1088,0.1142,0.1167,0.1243,0.1297,0.1347,0.1434,0.1487,0.1639,0.1779,0.1868,0.1927,0.2012,0.2055,0.2088,0.2084,0.2171,0.2133,0.2139,0.1978,0.1982,0.1952,0.1948,0.2031,0.2032,0.2034,0.2034,0,0.1057,0.1068,0.1136,0.1184,0.1254,0.1281,0.1337,0.1412,0.1503,0.1712,0.1739,0.1881,0.2007,0.1988,0.2016,0.2006,0.195,0.1878,0.1896,0.1911,0.1737,0.1711,0.1683,0,0,0,0,0,0.1018,0.1023,0.1065,0.1112,0.1179,0.1217,0.1312,0.1376,0.1536,0.1559,0.1648,0.1718,0.1768,0.1832,0.1783,0.1907,0.194,0.1839,0.1862,0.1961,0.1975,0.1773,0,0,0,0,0,0,0.0984,0.102,0.1037,0.1053,0.1077,0.1133,0.1189,0.1282,0.1303,0.1469,0.1503,0.162,0.1684,0.179,0.1758,0.1772,0.175,0.1919,0.1914,0.1952,0.1966,0.1977,0.1775,0,0,0,0,0]},{"header":{"parameterUnit":"m.s-1","parameterCategory":2,"la1":30.2991,"la2":30.254,"lo1":-89.0895,"lo2":-89.0444,"dy":0.0017,"dx":0.0017,"nx":28,"ny":28,"refTime":"2023-08-24T21:00:00:Z","depth":"4","parameterNumber":3,"parameterNumberName":"V-component_of_CURRENTS"},"data":[0,0,0,0,0,0,0,0,0,0,0,0,0,0,0,0,0,0,0,0,0,0,0,0,0,0,0,0,0,0,0,0,0,0,0,0,0,0,0,0,0,0,0,0,0,0,0,0,0,0,0,0,0,0,0,0,0,0,0.0296,0.0297,0,0.0357,0.0358,0.0358,0.0397,0.0397,0.0398,0.0398,0.0361,0.0359,0.0358,0,0,0,0,0,0,0,0,0,0,0,0,0,0.0205,0.0206,0.0296,0.0297,0.0298,0.0357,0.0358,0.0358,0.0396,0.0397,0.0398,0.0398,0.0361,0.036,0.0358,0,0,0,0,0,0,0,0,0,0,0,0,0,0.0249,0.0206,0.0296,0.0327,0.0331,0.0357,0.0358,0.0358,0.0396,0.0397,0.0398,0.0399,0.0362,0.036,0.0358,0.0326,0,0,0.0351,0.035,0,0,0,0,0,0,0,0,0.0247,0.0252,0.0322,0.0325,0.033,0.0374,0.0312,0.0344,0.0396,0.0367,0.0398,0.0399,0.0358,0.0356,0.0362,0.0325,0.0323,0.035,0.0349,0.0348,0.0347,0,0,0,0,0,0,0,0.0244,0.025,0.0316,0.0323,0.0328,0.0336,0.0343,0.0318,0.0352,0.037,0.0374,0.0387,0.0359,0.0364,0.0361,0.0322,0.035,0.0348,0.0347,0.0346,0.0291,0.0291,0,0,0,0,0,0,0.0244,0.0247,0.0315,0.0319,0.0294,0.0337,0.0345,0.0355,0.0355,0.0358,0.0386,0.0388,0.0367,0.0363,0.0359,0.0363,0.0348,0.0346,0.0345,0.0291,0.0291,0.0291,0,0,0,0,0,0,0.0241,0.0249,0.0312,0.0287,0.0297,0.0338,0.035,0.0356,0.0377,0.0369,0.0369,0.0402,0.0368,0.0363,0.0349,0.036,0.0345,0.0343,0.0291,0.0291,0.0291,0.0343,0,0,0,0,0,0,0.0238,0.0247,0.0255,0.0287,0.0298,0.0345,0.035,0.0357,0.0385,0.0388,0.0382,0.0379,0.0368,0.0352,0.0347,0.0356,0.0341,0.0291,0.0291,0.0291,0.0341,0.0344,0.0347,0,0,0,0,0,0.0235,0.0252,0.0254,0.0263,0.0307,0.0346,0.0352,0.0382,0.0385,0.0401,0.0389,0.038,0.0347,0.035,0.0344,0.0353,0.0291,0.0291,0.0291,0.034,0.0344,0.0347,0,0,0,0,0,0,0.0227,0.0259,0.0262,0.029,0.032,0.0355,0.0378,0.0387,0.0392,0.0396,0.0375,0.0372,0.0362,0.0345,0.0349,0.0335,0.0319,0.0317,0.0358,0.0361,0.0364,0.0363,0.0339,0,0,0,0,0,0.0224,0.0237,0.0274,0.0295,0.0315,0.0342,0.0361,0.0382,0.0394,0.0399,0.0393,0.0376,0.0352,0.0349,0.0329,0.032,0.0271,0.0321,0.0324,0.0327,0.0319,0.0251,0.0248,0.029,0.029,0.029,0,0,0.0227,0.0245,0.0254,0.0292,0.0318,0.0354,0.0356,0.0399,0.0415,0.0389,0.0405,0.0384,0.035,0.0344,0.0339,0.0335,0.0289,0.0326,0.0329,0.032,0.0251,0.0246,0.0243,0.029,0.029,0.029,0,0,0.0245,0.0259,0.028,0.0309,0.0354,0.0371,0.0385,0.0426,0.0434,0.044,0.0421,0.0406,0.0385,0.0366,0.0348,0.035,0.0302,0.0349,0.037,0.0305,0.03,0.0296,0.0229,0.0218,0.0357,0.0357,0.0357,0,0.0247,0.028,0.0294,0.033,0.0362,0.038,0.0423,0.0428,0.0454,0.0447,0.0454,0.0407,0.0392,0.0357,0.037,0.0357,0.0308,0.0363,0.0308,0.0303,0.0298,0.023,0.0217,0.036,0.036,0.0359,0.0359,0,0.0286,0.0316,0.0339,0.038,0.0411,0.0455,0.0475,0.0488,0.0494,0.049,0.0466,0.044,0.041,0.0408,0.0393,0.0352,0.0325,0.0316,0.0301,0.0297,0.0225,0.0211,0.0363,0.0362,0.0362,0.0361,0,0,0.0287,0.035,0.036,0.0392,0.0447,0.048,0.0498,0.0515,0.0514,0.0511,0.0495,0.0465,0.0444,0.0421,0.0397,0.0355,0.0288,0.033,0.0325,0.0266,0.0134,0.0126,0.0109,0.0267,0.0265,0.0264,0.0099,0,0.0317,0.0382,0.0407,0.0474,0.0521,0.054,0.0554,0.0563,0.0554,0.0537,0.0487,0.0463,0.0447,0.0439,0.0389,0.0308,0.0253,0.0333,0.0143,0.0137,0.0134,0.0094,0.0257,0.0088,0.0085,0.0082,0.0081,0,0.0355,0.0394,0.0465,0.0526,0.0549,0.0584,0.0611,0.0626,0.059,0.0576,0.0531,0.0487,0.0418,0.0412,0.0253,0.0302,0.0221,0.016,0.0152,0.0114,0.0103,0.0092,0.0055,0.0057,0.0059,0.006,0.0062,0,0.0361,0.0438,0.0491,0.052,0.0586,0.0612,0.0642,0.0638,0.0643,0.0597,0.0581,0.0483,0.0436,0.0316,0.0191,0.0215,0.0007,0.002,-0.0072,-0.0074,-0.0038,-0.0032,-0.0102,-0.0102,-0.0101,-0.0101,-0.0101,0,0.0391,0.0437,0.0501,0.0537,0.0598,0.0638,0.0683,0.0685,0.0675,0.0667,0.0603,0.0556,0.041,0.028,0.0168,-0.0007,-0.0024,-0.0089,-0.0123,-0.0012,-0.0001,-0.0049,-0.0041,-0.0107,-0.0106,-0.0105,-0.0104,0,0.0399,0.0438,0.0507,0.0579,0.061,0.0656,0.073,0.0744,0.0734,0.0717,0.0701,0.0586,0.0415,0.0254,0.0048,-0.0035,-0.0196,-0.025,-0.0138,-0.0159,-0.0227,-0.0214,-0.0375,-0.0377,-0.0379,-0.038,-0.0381,0,0.0409,0.0445,0.0536,0.0579,0.0621,0.0696,0.0742,0.0772,0.078,0.0728,0.0703,0.0551,0.0455,0.0147,-0.0014,-0.026,-0.0273,-0.0355,-0.0274,-0.0242,-0.0259,-0.0243,-0.0229,-0.0383,-0.0384,-0.0384,-0.0385,0,0.0426,0.0455,0.0508,0.0594,0.0659,0.073,0.0791,0.0799,0.081,0.0797,0.0694,0.0547,0.0348,0.0134,-0.0063,-0.0227,-0.0301,-0.0371,-0.0368,-0.0292,-0.0254,-0.0265,-0.0249,-0.039,-0.0389,-0.0389,-0.0388,0,0.0432,0.0464,0.0527,0.0607,0.0683,0.0737,0.0778,0.0787,0.0798,0.0745,0.0702,0.0513,0.0405,0.0147,-0.0037,-0.0204,-0.0224,-0.0243,-0.0247,-0.0243,-0.0141,-0.0068,-0.0196,0,0,0,0,0,0.0436,0.047,0.0536,0.0616,0.0689,0.0737,0.0793,0.0818,0.0824,0.0759,0.0737,0.0559,0.0292,0.0169,-0.0001,-0.0068,-0.0261,-0.0271,-0.0286,-0.0419,-0.0413,-0.0314,0,0,0,0,0,0,0.0435,0.0492,0.0526,0.0608,0.0664,0.0741,0.0781,0.0787,0.0753,0.0734,0.0588,0.0534,0.0263,0.0386,-0.0,-0.0053,-0.008,-0.0394,-0.0397,-0.0422,-0.0417,-0.0412,-0.0308,0,0,0,0,0]}]]